Retour au catalogue

BEIDOU 3G1

ActifNavigationGEO
NORAD 43683·PAYLOAD·🇨🇳 China

Lancé Nov 1, 2018 depuis Xichang Satellite Launch Center

Loading…

TLE

FraisSource: Space-Track

Époque: Sep 14, 2026, 16:04 UTC

1 43683U 18085A   26257.66944775 -.00000115  00000-0  00000-0 0  9994
2 43683   2.6154  94.8427 0006050  20.5391 279.3331  1.00271848 28952

Suivez BEIDOU 3G1 en temps réel avec AllMySat

Download on the App Store